TimeCDT,TemperatureF,Dew PointF,Humidity,Sea Level PressureIn,VisibilityMPH,Wind Direction,Wind SpeedMPH,Gust SpeedMPH,PrecipitationIn,Events,Conditions,WindDirDegrees,DateUTC
12:15 AM,79.7,73.6,81,29.83,10.0,West,3.5,-,N/A,,Clear,270,2013-06-27 05:15:00
12:35 AM,79.7,73.4,81,29.83,10.0,West,4.6,-,N/A,,Clear,270,2013-06-27 05:35:00
1:15 AM,79.0,73.0,82,29.84,10.0,West,4.6,-,N/A,,Clear,280,2013-06-27 06:15:00
1:35 AM,79.2,72.3,79,29.84,10.0,West,6.9,-,N/A,,Clear,280,2013-06-27 06:35:00
1:55 AM,78.4,72.0,80,29.84,10.0,West,5.8,-,N/A,,Clear,280,2013-06-27 06:55:00
2:15 AM,78.1,71.6,80,29.83,10.0,West,5.8,-,N/A,,Clear,280,2013-06-27 07:15:00
2:35 AM,77.4,70.9,80,29.84,10.0,West,4.6,-,N/A,,Clear,280,2013-06-27 07:35:00
2:55 AM,77.2,70.5,80,29.84,10.0,WNW,5.8,-,N/A,,Clear,290,2013-06-27 07:55:00
3:15 AM,77.0,69.8,78,29.85,10.0,West,4.6,-,N/A,,Clear,280,2013-06-27 08:15:00
3:35 AM,76.1,69.4,80,29.85,10.0,West,4.6,-,N/A,,Clear,270,2013-06-27 08:35:00
3:55 AM,75.7,69.1,80,29.85,10.0,West,4.6,-,N/A,,Clear,280,2013-06-27 08:55:00
4:15 AM,75.4,68.9,80,29.86,10.0,West,5.8,-,N/A,,Clear,280,2013-06-27 09:15:00
4:35 AM,75.4,68.4,79,29.87,10.0,West,6.9,-,N/A,,Clear,280,2013-06-27 09:35:00
4:55 AM,75.2,68.2,79,29.87,10.0,WNW,6.9,-,N/A,,Clear,290,2013-06-27 09:55:00
5:15 AM,74.5,68.0,80,29.88,10.0,West,4.6,-,N/A,,Clear,280,2013-06-27 10:15:00
5:35 AM,74.3,67.8,80,29.88,10.0,West,4.6,-,N/A,,Clear,280,2013-06-27 10:35:00
5:55 AM,73.8,67.5,81,29.88,10.0,West,4.6,-,N/A,,Clear,270,2013-06-27 10:55:00
6:15 AM,73.8,67.5,81,29.89,10.0,West,4.6,-,N/A,,Clear,280,2013-06-27 11:15:00
6:35 AM,73.9,67.5,80,29.89,10.0,Calm,Calm,-,N/A,,Clear,0,2013-06-27 11:35:00
6:55 AM,74.8,68.0,79,29.89,10.0,Calm,Calm,-,N/A,,Clear,0,2013-06-27 11:55:00
7:15 AM,75.9,68.4,77,29.89,10.0,West,3.5,-,N/A,,Clear,280,2013-06-27 12:15:00
7:35 AM,77.0,67.6,73,29.90,10.0,WNW,6.9,-,N/A,,Clear,290,2013-06-27 12:35:00
7:55 AM,77.9,67.8,71,29.91,10.0,WNW,4.6,-,N/A,,Clear,290,2013-06-27 12:55:00
8:15 AM,78.8,68.2,70,29.91,10.0,WNW,5.8,-,N/A,,Clear,290,2013-06-27 13:15:00
8:35 AM,79.9,68.5,68,29.91,10.0,WNW,6.9,-,N/A,,Clear,290,2013-06-27 13:35:00
8:55 AM,81.3,68.7,65,29.91,10.0,West,6.9,-,N/A,,Clear,280,2013-06-27 13:55:00
9:15 AM,82.4,68.7,63,29.91,10.0,WNW,4.6,-,N/A,,Clear,290,2013-06-27 14:15:00
9:35 AM,83.5,69.3,62,29.91,10.0,WNW,5.8,-,N/A,,Clear,290,2013-06-27 14:35:00
9:55 AM,84.4,68.4,58,29.90,10.0,West,8.1,-,N/A,,Clear,280,2013-06-27 14:55:00
10:15 AM,85.5,67.8,55,29.90,10.0,West,5.8,-,N/A,,Clear,270,2013-06-27 15:15:00
10:35 AM,86.2,66.7,52,29.91,10.0,WNW,6.9,-,N/A,,Clear,290,2013-06-27 15:35:00
10:55 AM,86.9,66.4,50,29.91,10.0,West,8.1,-,N/A,,Clear,280,2013-06-27 15:55:00
11:15 AM,87.8,66.4,49,29.91,10.0,WNW,10.4,-,N/A,,Clear,300,2013-06-27 16:15:00
11:35 AM,88.0,66.7,49,29.91,10.0,West,9.2,-,N/A,,Clear,260,2013-06-27 16:35:00
11:55 AM,88.7,67.1,49,29.91,10.0,West,8.1,-,N/A,,Clear,270,2013-06-27 16:55:00
12:15 PM,89.1,66.9,48,29.90,10.0,West,6.9,-,N/A,,Clear,270,2013-06-27 17:15:00
12:35 PM,90.0,65.7,44,29.90,10.0,West,8.1,-,N/A,,Clear,280,2013-06-27 17:35:00
12:55 PM,90.5,64.6,42,29.91,10.0,West,8.1,-,N/A,,Clear,270,2013-06-27 17:55:00
1:15 PM,90.9,63.3,40,29.91,10.0,West,10.4,-,N/A,,Clear,280,2013-06-27 18:15:00
1:35 PM,89.6,62.1,40,29.92,10.0,West,9.2,-,N/A,,Clear,280,2013-06-27 18:35:00
1:55 PM,89.1,63.1,42,29.92,10.0,West,8.1,-,N/A,,Clear,280,2013-06-27 18:55:00
2:15 PM,88.5,65.3,46,29.92,10.0,West,6.9,-,N/A,,Clear,280,2013-06-27 19:15:00
2:35 PM,88.3,66.4,48,29.92,10.0,West,4.6,-,N/A,,Clear,270,2013-06-27 19:35:00
2:55 PM,87.8,67.1,50,29.92,10.0,West,6.9,-,N/A,,Clear,270,2013-06-27 19:55:00
3:15 PM,87.8,68.0,52,29.92,10.0,West,8.1,-,N/A,,Clear,270,2013-06-27 20:15:00
3:35 PM,87.8,67.8,51,29.91,10.0,West,9.2,-,N/A,,Clear,280,2013-06-27 20:35:00
3:55 PM,87.4,67.8,52,29.91,10.0,West,6.9,17.3,N/A,,Clear,280,2013-06-27 20:55:00
4:15 PM,86.9,67.5,52,29.90,10.0,West,10.4,17.3,N/A,,Clear,280,2013-06-27 21:15:00
4:35 PM,86.2,66.7,52,29.88,10.0,West,5.8,-,N/A,,Clear,260,2013-06-27 21:35:00
4:55 PM,85.3,67.5,55,29.87,10.0,West,4.6,-,N/A,,Clear,270,2013-06-27 21:55:00
5:15 PM,85.1,68.5,57,29.86,10.0,WSW,8.1,-,N/A,,Clear,250,2013-06-27 22:15:00
5:35 PM,85.1,68.4,57,29.85,10.0,West,5.8,-,N/A,,Scattered Clouds,270,2013-06-27 22:35:00
5:55 PM,84.4,68.7,59,29.85,10.0,West,3.5,-,N/A,,Clear,270,2013-06-27 22:55:00
6:15 PM,85.6,69.4,58,29.85,10.0,WSW,5.8,-,N/A,,Clear,250,2013-06-27 23:15:00
6:35 PM,86.0,68.7,56,29.84,10.0,West,5.8,-,N/A,,Clear,280,2013-06-27 23:35:00
6:55 PM,85.6,68.2,56,29.83,10.0,WNW,5.8,-,N/A,,Clear,290,2013-06-27 23:55:00
7:15 PM,85.3,67.1,54,29.82,10.0,WNW,5.8,-,N/A,,Clear,290,2013-06-28 00:15:00
7:35 PM,84.6,67.5,56,29.83,10.0,WNW,5.8,-,N/A,,Clear,300,2013-06-28 00:35:00
7:55 PM,83.5,67.8,59,29.83,10.0,WNW,8.1,-,N/A,,Clear,300,2013-06-28 00:55:00
8:15 PM,82.4,68.5,63,29.83,10.0,WNW,3.5,-,N/A,,Clear,300,2013-06-28 01:15:00
8:35 PM,80.8,69.1,67,29.83,10.0,NW,3.5,-,N/A,,Clear,310,2013-06-28 01:35:00
8:55 PM,79.9,69.1,69,29.83,10.0,Calm,Calm,-,N/A,,Clear,0,2013-06-28 01:55:00
9:15 PM,79.7,69.3,70,29.83,10.0,Calm,Calm,-,N/A,,Clear,0,2013-06-28 02:15:00
9:35 PM,79.0,69.1,72,29.84,10.0,Calm,Calm,-,N/A,,Clear,0,2013-06-28 02:35:00
9:55 PM,78.8,68.9,72,29.85,10.0,WNW,3.5,-,N/A,,Clear,290,2013-06-28 02:55:00
10:15 PM,78.1,68.9,73,29.86,10.0,West,3.5,-,N/A,,Clear,270,2013-06-28 03:15:00
10:35 PM,77.7,68.9,74,29.88,10.0,WNW,4.6,-,N/A,,Clear,300,2013-06-28 03:35:00
10:55 PM,77.4,68.5,74,29.89,10.0,West,3.5,-,N/A,,Clear,280,2013-06-28 03:55:00
11:15 PM,78.4,67.6,69,29.89,10.0,WNW,5.8,-,N/A,,Clear,290,2013-06-28 04:15:00
11:35 PM,77.9,67.5,70,29.88,10.0,WNW,3.5,-,N/A,,Clear,290,2013-06-28 04:35:00
11:55 PM,77.2,67.5,72,29.88,10.0,West,3.5,-,N/A,,Clear,270,2013-06-28 04:55:00